Location: Bezawada
(16.5136°N, 80.6297°E)
Time: 19:09:33
(UTC+00:00)

Cosmos 990 Rocket - Pass Details

Date: 27 February 2020
Orbit: 747 x 768 km, 74.0° (Epoch: 05 April)

Event Time Altitude Azimuth Distance (km) Brightness Sun altitude
Rises 14:40:08 0° 341° (NNW) 3,186 7.4 -28.6°
Reaches altitude 10° 14:42:30 10° 337° (NNW) 2,263 6.7 -29.2°
Enters shadow 14:47:01 57° 287° (WNW) 882 4.4 -30.3°
